Location: Newark
(26.0814°N, 97.8289°W)
Time: 13:52:34
(UTC+00:00)

LightSail 2 - Pass Details

Date: 24 January 2020
Orbit: 697 x 724 km, 24.0° (Epoch: 29 February)

Event Time Altitude Azimuth Distance (km) Brightness Sun altitude
Rises 01:41:45 0° 271° (W) 3,082 9.9 -21.1°
Reaches altitude 10° 01:44:11 10° 268° (W) 2,168 8.8 -21.6°
Maximum altitude 01:49:15 63° 188° (S) 788 5.3 -22.7°
Enters shadow 01:50:27 48° 133° (SE) 923 5.4 -23.0°
